Location: Arpaise
(41.0333°N, 14.7333°E)
Time: 08:03:33
(UTC+00:00)

Cosmos 1076 Rocket - Pass Details

Date: 05 July 2020
Orbit: 589 x 613 km, 82.5° (Epoch: 05 August)

Event Time Altitude Azimuth Distance (km) Brightness Sun altitude
Exits shadow 21:36:07 81° 168° (SSE) 613 3.3 -23.0°
Maximum altitude 21:36:19 87° 100° (E) 607 3.4 -23.0°
Drops below altitude 10° 21:40:37 10° 8° (N) 1,943 6.9 -23.3°
Sets 21:42:50 0° 9° (N) 2,846 7.9 -23.4°
